Regional Weather Roundup
Issued by NWS

Home | Current Version | Previous Version | Graphics & Text | Print | Product List | Glossary On
Versions: 1 2 3 4 5 6 7 8 9 10 11 12 13 14 15 16 17 18 19 20 21 22 23 24 25 26 27 28 29 30 31 32 33 34 35 36 37 38 39 40 41 42 43 44 45 46 47 48 49 50
000
ASUS43 KMPX 171710
RWRMN
WEATHER ROUNDUP FOR MINNESOTA
NATIONAL WEATHER SERVICE TWIN CITIES/CHANHASSEN MN
1100 AM CST WED DEC 17 2014


NOTE: "FAIR" INDICATES FEW OR NO CLOUDS BELOW 12,000 FEET WITH NO
SIGNIFICANT WEATHER AND/OR OBSTRUCTIONS TO VISIBILITY. N/A MEANS
CURRENT SKY AND/OR WEATHER CONDITIONS ARE NOT AVAILABLE.

MNZ060>063-068>070-171800-
   Twin Cities Metro

CITY           SKY/WX    TMP DP  RH WIND       PRES   REMARKS
TWIN CITIES    PTSUNNY   15   8  73 W7        30.33F WCI   5
ST PAUL        CLOUDY    16   9  74 NW9       30.34S WCI   4
CRYSTAL        PTSUNNY   14   8  77 W8        30.32S WCI   3
BLAINE         PTSUNNY   16   3  57 W6        30.31S WCI   7
LAKEVILLE      LGT SNOW  12   9  85 NW6       30.32S WCI   3
EDEN PRAIRIE   MOSUNNY   15   8  73 NW8       30.32S WCI   4
SOUTH ST PAUL  LGT SNOW  16  10  78 NW6       30.33F WCI   7
LAKE ELMO      LGT SNOW  18  12  79 W7        30.32S WCI   8
$$
MNZ001>005-007-008-013>017-022>024-027-028-171800-
   Northwest Minnesota

CITY           SKY/WX    TMP DP  RH WIND       PRES   REMARKS
BEMIDJI        PTSUNNY   14   9  80 N3        30.30R
HALLOCK        MOSUNNY    9   3  78 CALM      30.38S
ROSEAU         MOSUNNY    9   3  78 E3        30.35S
WARROAD        MOSUNNY    9   5  85 NE3       30.35S
THIEF RVR FALL MOSUNNY   10   9  92 CALM      30.35S
CROOKSTON      LGT SNOW   9   5  85 NW5       30.40R WCI   0
FOSSTON        CLOUDY     9   7  92 CALM      30.33S
DETROIT LAKES  LGT SNOW  10   9  92 NW5       30.33S WCI   2
MOORHEAD       PTSUNNY    9   9 100 NW6       30.39S WCI  -1
PARK RAPIDS    MOSUNNY   14   7  73 N6        30.28S WCI   5
MAHNOMEN       CLOUDY     7   3  86 W3        30.34R
$$
MNZ006-009>011-018-025>026-171800-
   North Central Minnesota

CITY           SKY/WX    TMP DP  RH WIND       PRES   REMARKS
BAUDETTE       CLOUDY    14   7  73 N6        30.33S WCI   5
FLAG ISLAND    MOSUNNY   10   5  79 N5        30.35S WCI   2
INTL FALLS     SUNNY     15   6  67 NE7       30.32S WCI   5
WASKISH        MOSUNNY   18  12  79 CALM      30.32S
BIG FORK       MOSUNNY   16  10  79 N7        30.29F WCI   6
LONGVILLE      FLURRIES  14   9  79 N6        30.29S WCI   5
GRAND RAPIDS   PTSUNNY   12   7  79 N10       30.26S WCI  -1
CRANE LAKE     SUNNY     14   9  79 N3        30.33S
ORR            SUNNY     16   7  67 CALM      30.26S
COOK           MOSUNNY   14   9  79 N5        30.28S WCI   6
WALKER         FAIR      13   8  78 CALM      30.30R
$$
MNZ012-019>021-037-171800-
   Northeast Minnesota

CITY           SKY/WX    TMP DP  RH WIND       PRES   REMARKS
DULUTH         MOSUNNY   15   7  70 N10       30.22S WCI   2
ELY            SUNNY     12   9  85 NE7       30.25S WCI   2
HIBBING        MOSUNNY   16   7  67 N8        30.26R WCI   5
EVELETH        MOSUNNY   16  10  79 N7        30.26S WCI   6
DULUTH HARBOR  CLOUDY    19  12  73 N10       30.29S WCI   8
TWO HARBORS    CLOUDY    19  10  68 N3        30.23S
SILVER BAY     CLOUDY    19  10  68 N7        30.22S WCI  10
GRAND MARAIS     N/A     22  10  60 VRB7G20   30.25R WCI  13
G MARAIS ARPRT CLOUDY    12   5  73 N13       30.18R WCI  -3
$$
MNZ029>031-032-039>041-046>048-054>057-064-171800-
   West Central Minnesota

CITY           SKY/WX    TMP DP  RH WIND       PRES   REMARKS
FERGUS FALLS   SUNNY      7   3  85 N5        30.39S WCI  -2
WHEATON        SUNNY      9   3  78 NW6       30.39F WCI  -1
MORRIS         SUNNY     10   7  85 NW9       30.35R WCI  -2
ALEXANDRIA     MOSUNNY   10   6  84 NW7       30.31S WCI  -1
ELBOW LAKE     FLURRIES   7   4  89 NW6       30.34S WCI  -4
WADENA         MOSUNNY   10   7  85 NW5       30.30S WCI   2
GLENWOOD       MOSUNNY   10   9  92 NW5       30.32S WCI   2
APPLETON       MOSUNNY   12   9  85 N3        30.37S
BENSON         SUNNY     12   7  79 N5        30.36R WCI   4
ORTONVILLE     SUNNY     10   5  79 N6        30.36S WCI   1
MADISON        SUNNY     12   9  85 N5        30.36F WCI   4
WILLMAR        PTSUNNY   12   7  79 NW8       30.35S WCI   1
$$
MNZ033>034-036-042>043-049>051-058-059-171800-
   Central Minnesota

CITY           SKY/WX    TMP DP  RH WIND       PRES   REMARKS
ST CLOUD       PTSUNNY   15   8  73 NW8       30.31F HAZE    WCI   4
SAUK CENTRE    FAIR      10   5  82 W7        30.32S WCI  -2
PAYNESVILLE    MOSUNNY    9   6  86 SW6       30.33S WCI   0
AITKIN         MIX PCPN  18   9  68 N7        30.27S WCI   8
PINE RIVER     CLOUDY    12   9  85 N9        30.31S WCI   0
BRAINERD       LGT SNOW  14   9  80 CALM      30.29S
STAPLES        CLOUDY    10   9  92 CALM      30.30S
LONG PRAIRIE   FAIR      12   7  79 NW7       30.31S WCI   2
LITTLE FALLS   LGT SNOW  14   9  79 W5        30.32S WCI   6
LITCHFIELD     SUNNY     14  10  85 W5        30.34S WCI   6
BUFFALO        SUNNY     15   9  76 W7        30.34S WCI   5
MAPLE LAKE     SUNNY     15  11  83 W8        30.34S WCI   4
$$
MNZ037-044-045-052-053-171800-
   East Central Minnesota

CITY           SKY/WX    TMP DP  RH WIND       PRES   REMARKS
PRINCETON      FLURRIES  18  10  73 CALM      30.30F
MORA           PTSUNNY   16   9  73 NW7       30.31S WCI   6
CAMBRIDGE      FLURRIES  16   7  67 NW3       30.29S
RUSH CITY      PTSUNNY   16   9  75 N5        30.30F WCI   9
MOOSE LAKE     SUNNY     18   9  68 N7        30.26S WCI   8
HINCKLEY       PTSUNNY   18  10  73 CALM      30.28S
CLOQUET        PTSUNNY   16   9  73 N10G16    30.25R WCI   3
MCGREGOR       MOSUNNY   16  10  79 N8        30.28S WCI   5
$$
MNZ071>073-080-081-089-090-097-098-171800-
   Southwest Minnesota

CITY           SKY/WX    TMP DP  RH WIND       PRES   REMARKS
MONTEVIDEO     SUNNY     12   9  85 N5        30.37F WCI   4
GRANITE FALLS  SUNNY     11   8  85 NW7       30.37F WCI   0
CANBY          SUNNY     12   8  83 NW7       30.36F WCI   2
MARSHALL       SUNNY     10   3  72 NW6       30.35F WCI   1
REDWOOD FALLS  SUNNY     13   7  77 N9        30.35S WCI   1
OLIVIA         SUNNY     12   9  85 NW9       30.34F WCI   0
PIPESTONE      SUNNY     10   9  92 CALM      30.30S
WINDOM         SUNNY     12   9  85 NW8       30.31F WCI   1
WORTHINGTON    SUNNY     12   9  85 N6        30.31F WCI   3
JACKSON        MOSUNNY   16  10  79 NW6       30.32S WCI   7
TRACY          SUNNY     13   8  83 NW5       30.34S WCI   5
SLAYTON        SUNNY     13   9  86 CALM      30.32S
$$
MNZ065>067-074>077-082>085-091>093-171800-
   South Central Minnesota

CITY           SKY/WX    TMP DP  RH WIND       PRES   REMARKS
MANKATO        SUNNY     12   7  79 N10       30.33F WCI  -1
NEW ULM        FLURRIES  12   9  85 NW6       30.34F WCI   3
ST JAMES       LGT SNOW  14  10  85 NW8       30.36S WCI   3
FAIRMONT       MOSUNNY   16   9  73 NW9       30.32F WCI   4
GLENCOE        LGT SNOW  16  12  84 W5        30.33F WCI   9
FARIBAULT      LGT SNOW  16  10  79 W6        30.32S WCI   7
OWATONNA       FLURRIES  16  10  79 NW13      30.31S WCI   2
WASECA         LGT SNOW  14  10  85 NW9       30.33F WCI   2
ALBERT LEA     SUNNY     16  10  79 NW8       30.31S WCI   5
$$
MNZ078>079-086>088-094>096-171800-
   Southeast Minnesota

CITY           SKY/WX    TMP DP  RH WIND       PRES   REMARKS
ROCHESTER      LGT SNOW  15  10  80 NW12      30.28F WCI   2
RED WING       LGT SNOW  18  10  73 W7        30.31F WCI   8
STANTON        FLURRIES  16  10  77 NW6       30.31F WCI   8
DODGE CENTER   LGT SNOW  14  12  92 NW10G16   30.28F WCI   1
WINONA         CLOUDY    21  14  73 NW10      30.32S WCI  10
AUSTIN         SUNNY     16  10  79 N13       30.29F WCI   2
PRESTON        LGT SNOW  15  10  81 NW9       30.28F WCI   3
$$
ABBREVIATIONS USED IN REMARKS
   TC - TEMPERATURES IN CELSIUS
  WCI - WIND CHILL INDEX
   HX - HEAT INDEX
  VSB - VISIBILITY
$$


USA.gov is the U.S. government's official web portal to all federal, state and local government web resources and services.